STARLINK-30252, 57607

Orbit data source: Space-Track

STARLINK-30252, 57607 is a payload satellite owned by SpaceX/Seattle (US) in LEO that was launched on Fri, 11 Aug 2023 UTC via an FALCON 9 launch vehicle from the Air Force Eastern Test Range (AFETR). Payload-class satellites include a variety of spacecraft equipped with specific instruments for various scientific and technological missions. These include communications satellites like Starlink; space stations such as the ISS; scientific satellites like the Hubble; Earth observation satellites from companies like Planet Labs, Umbra, and HawkEye 360; GPS; miniature CubeSats for education and research; and military/defense satellites.

Loading next visibility...
Identifier
57607, 2023-119F
Orbit
LEO
Country
Flag of USUS
Related business
Manufacturer
SpaceX/Seattle
Mission
Operational Commercial Communications
Bus & Motor
STARLINK V2M, Unknown motor
Mass
730 kg wet, ~700 kg dry
Launch date (UTC)
2023-08-11 (3 years ago)
Launch vehicle
FALCON 9
Launch site
Air Force Eastern Test Range (AFETR)
Object type
Payload
Rocket body
Debris
Shape & HBR
Box + 2 Pan, 17.7 m
Radar Cross Section
33.884 m², Large (>1 m²)

Expand to show TLE details & history
Last TLE update: 19 hours ago

TLE from 19 hours ago
0 STARLINK-30252
1 57607U 23119F   26094.59162332  .00000752  00000-0  36836-4 0  9997
2 57607  43.0022 280.3514 0001240 252.5734 107.4982 15.27574897147228
Epoch: 2026-04-04T14:11Z
TLE epoch observation values (Epoch: 2026-04-04T14:11:56.254Z)
Latitude
-0.00004°
Longitude
-125.54223°
Altitude
483.096 km
Speed
7.626 km/s
True Right ascension
18h 41m 24s
True Declination
0° 00' 00"
Sunlit
Object was in daylight at epoch
Visualization orbit readout
Latitude
Unknown
Longitude
Unknown
Altitude
Unknown
Speed
Unknown
Apparent Right ascension
Unknown
Apparent Declination
Unknown
Sunlit
N/A
Visualization observer readout
Local Sidereal Time
15:26:18
Azimuth
Unknown
Elevation
Unknown
Doppler factor
Unknown
Orbital elements
Apogee altitude
485.86 km
Perigee altitude
484.158 km
Semi-major axis
6,863.146 km
Eccentricity
0.00012
Inclination
43.0022°
RAAN
280.3514°
Arg. of periapsis
252.5734°
True anomaly
107.51175°
Mean anomaly
107.4982°
Eccentric anomaly
107.50498°
Mean motion
3.81732 °/min
Orbital period
94.31 mins
BSTAR
0.000036836
Loading maneuver chart data...
Computing Atmospheric mass density...
Loading historical data...
Loading historical data...
Loading historical data...
Loading historical data...
Loading historical data...
Loading historical data...
Loading historical data...

Documentation

Showing up to 5 results
|